Location: *
(43.9905°S, 176.4941°W)
Time: 16:30:00
(UTC+00:00)

Cosmos 1626 - Pass Details

Date: 08 December 2019
Orbit: 492 x 495 km, 82.5° (Epoch: 23 January)

Event Time Altitude Azimuth Distance (km) Brightness Sun altitude
Rises 09:48:09 0° 181° (S) 2,627 6.9 -18.7°
Reaches altitude 10° 09:50:25 10° 172° (S) 1,734 5.7 -18.9°
Maximum altitude 09:53:57 36° 103° (ESE) 812 3.0 -19.2°
Enters shadow 09:54:23 35° 87° (E) 832 3.0 -19.2°
